Location: Buisson
(44.2787°N, 4.9969°E)
Time: 05:48:36
(UTC+00:00)

Cosmos 1674 Rocket - Pass Details

Date: 18 April 2021
Orbit: 604 x 629 km, 82.5° (Epoch: 05 May)

Event Time Altitude Azimuth Distance (km) Brightness Sun altitude
Exits shadow 03:43:11 - 188° (S) 2,518 6.3 -12.1°
Reaches altitude 10° 03:44:34 10° 189° (S) 1,954 5.8 -11.9°
Maximum altitude 03:48:54 86° 275° (W) 620 3.5 -11.2°
Drops below altitude 10° 03:53:18 10° 8° (N) 1,985 6.6 -10.5°
Sets 03:55:33 0° 9° (N) 2,900 7.5 -10.1°
